Regional Weather Roundup
Issued by NWS

Home | Current Version | Previous Version | Graphics & Text | Print | Product List | Glossary On
Versions: 1 2 3 4 5 6 7 8 9 10 11 12 13 14 15 16 17 18 19 20 21 22 23 24 25 26 27 28 29 30 31 32 33 34 35 36 37 38 39 40 41 42 43 44 45 46 47 48 49 50
000
ASUS45 KBOU 210807
RWRCO

WEATHER ROUNDUP FOR COLORADO
NATIONAL WEATHER SERVICE DENVER/BOULDER CO
200 AM MDT TUE OCT 21 2014

NOTE: "FAIR" INDICATES FEW OR NO CLOUDS BELOW 12000 FEET WITH NO
SIGNIFICANT WEATHER AND/OR OBSTRUCTIONS TO VISIBILITY.

COZ001>005-013-030-031-210900-
...NORTHWEST COLORADO...

CITY           SKY/WX    TMP DP  RH WIND       PRES   REMARKS
CRAIG          CLEAR     34  30  85 CALM      30.12S
HAYDEN         CLEAR     43  34  70 SE12      30.13R
MEEKER         PTCLDY    41  35  79 NE3       30.13S
MOUNT WERNER   NOT AVBL
STEAMBOAT SPGS CLEAR     38  33  84 CALM      30.15F
WALDEN         PTCLDY    32  28  86 E7        30.21R WCI  26
$$

COZ006>008-011-210900-
...WEST CENTRAL VALLEYS...

CITY           SKY/WX    TMP DP  RH WIND       PRES   REMARKS
GRAND JUNCTION MOCLDY    57  38  48 SE12      30.04S
MONTROSE       MOCLDY    50  39  66 SE7       30.13S
EAGLE          PTCLDY    43  36  75 CALM      30.19R
RIFLE          MOCLDY    45  38  76 SW3       30.10S
DELTA          PTCLDY    54  41  61 NE6       30.09F
NUCLA          PTCLDY    50  36  57 E8        30.17S
$$

COZ017>023-064>068-210900-
...SOUTHWEST COLORADO...

CITY           SKY/WX    TMP DP  RH WIND       PRES   REMARKS
DURANGO        CLOUDY    50  43  77 NE6       30.22S
CORTEZ         CLOUDY    55  42  61 SW3       30.16R
PAGOSA SPRINGS DRIZZLE   46  40  79 E3        30.27F
TELLURIDE      CLOUDY    49  37  64 SE6       30.31R
WOLF CREEK PAS CLOUDY    32  32 100 SW15      30.43F FOG     WCI  22
$$

COZ009-010-012-014-032>034-037-058>063-210900-
...CENTRAL COLORADO...

CITY           SKY/WX    TMP DP  RH WIND       PRES   REMARKS
ASPEN          CLOUDY    40  33  76 CALM      30.20S
BUENA VISTA    PTCLDY    36  32  86 W3        30.26S
COPPER MTN     CLEAR     41  28  60 S16G22    30.41F
BERTHOUD PASS  FAIR      32  30  93 W12       30.45S WCI  23
COTTONWOOD PAS PTCLDY    46  32  57 CALM      30.33S
GUNNISON       MOCLDY    36  27  69 SE3       30.27S
KREMMLING      CLEAR     34  30  86 CALM        N/A
LEADVILLE      CLEAR     31  28  89 NE5       30.32S WCI  26
MONARCH PASS   MOCLDY    34  30  86 SW18G25   30.52F WCI  23
SALIDA         PTCLDY    45  35  66 CALM      30.31S
SUNLIGHT       CLOUDY    43  34  70 CALM      30.36F
WILKERSON PASS NOT AVBL
$$

COZ069>075-210900-
...SAN LUIS VALLEY/SANGRE DE CRISTO MOUNTAINS...

CITY           SKY/WX    TMP DP  RH WIND       PRES   REMARKS
ALAMOSA        CLEAR     39  33  79 SE7       30.24S
LA VETA PASS   NOT AVBL
SAGUACHE       CLEAR     37  32  81 NW7       30.27S
$$

COZ035-036-038>040-210900-
...NORTHERN COLORADO FRONT RANGE...

CITY           SKY/WX    TMP DP  RH WIND       PRES   REMARKS
DENVER INTL AP CLEAR     57  38  48 S18       30.03F
DMNS CITY PARK   N/A     56  36  46 S2        30.04S
AURORA         PTCLDY    55  39  55 S16       30.06F
FRONT RANGE AP NOT AVBL
ERIE MUNI ARPT CLEAR     43  38  82 CALM      30.03F
BOULDER MUN AP CLEAR     52  36  54 S3        30.03S
CENTENNIAL     CLEAR     55  37  50 VRB5      30.08F
BROOMFIELD     CLEAR     55  34  44 W3        30.06S
FORT COLLINS   CLEAR     45  37  76 N6        30.04S
LONGMONT       CLEAR     45  38  78 CALM      30.05S
$$

COZ041-046-047-076>085-087-088-210900-
...PIKES PEAK/PALMER DIVIDE AND SOUTHERN FOOTHILLS...

CITY           SKY/WX    TMP DP  RH WIND       PRES   REMARKS
COLO. SPRINGS  CLEAR     45  40  82 NE5       30.15F
A. F. ACADEMY  CLEAR     39  35  86 N8        30.16F
ELLICOTT       CLEAR     48  44  86 SE9       30.13F
FALCON         CLEAR     44  40  88 CALM      30.18S
FORT CARSON    CLEAR     45  38  77 NW5       30.13S
LIMON          CLEAR     45  43  93 SE6       30.12F
MONUMENT HILL  CLEAR     43  37  81 S12       30.15S
TRINIDAD       CLEAR     52  40  63 SW12      30.14F
$$

COZ042>045-048>051-090-091-210900-
...NORTHEAST COLORADO...

CITY           SKY/WX    TMP DP  RH WIND       PRES   REMARKS
GREELEY ARPT   CLEAR     41  30  65 NW6       30.03S
AKRON          CLEAR     55  46  71 S17       30.05F
BURLINGTON     CLEAR     52  44  74 S12       30.10S
WRAY           CLEAR     53  40  60 S3        30.06F
STERLING       CLEAR     52  45  76 CALM      30.02F
HOLYOKE        CLEAR     52  41  66 S8        30.06S
FORT MORGAN    CLEAR     48  40  73 SE5       30.04S
$$

COZ086-089-092>099-210900-
...SOUTHEAST COLORADO...

CITY           SKY/WX    TMP DP  RH WIND       PRES   REMARKS
PUEBLO         CLEAR     47  41  80 N6        30.08F
LA JUNTA       CLEAR     51  47  86 E5        30.08F
LAMAR          CLEAR     45  43  93 CALM      30.07F
SPRINGFIELD      N/A     48  47  96 SW7       30.11F
$$



USA.gov is the U.S. government's official web portal to all federal, state and local government web resources and services.